AAR204 RKSI-KLAX

Flight info

Callsign AAR204
Flight time N/A
Altitude 35000
Route EGOBA2A EGOBA Y697 LANAT Y51 SAMON Y142 GTC Y512 ADNAP OTR5 KALNA DCT 41N160E/N0464F370 42N170E 43N180E 43N170W 42N160W 41N150W/N0462F390 40N140W 39N130W DCT CEPAS DCT PIRAT DCT BURGL IRNMN2
Aircraft A388/J-SADE2E3FGHIJ3J4J5M1RWXY/LB1D1

Departure

Time N/A
Airport Incheon International Airport (RKSI)

Arrival

Time 2026-04-24 21:55
Airport Los Angeles International Airport (KLAX)
Time Latitude Longitude Altitude Speed Heading
2026-04-24 15:04 41.46637 163.62251 36796 ft 613 kts 84°
2026-04-24 15:04 41.47894 163.73501 36803 ft 613 kts 84°
2026-04-24 15:05 41.49133 163.84691 36798 ft 613 kts 84°
2026-04-24 15:05 41.50367 163.95951 36794 ft 614 kts 84°
2026-04-24 15:06 41.51594 164.07238 36805 ft 614 kts 84°
2026-04-24 15:06 41.52809 164.18530 36799 ft 615 kts 85°
2026-04-24 15:07 41.54016 164.29851 36803 ft 616 kts 85°
2026-04-24 15:07 41.55211 164.41172 36808 ft 616 kts 85°
2026-04-24 15:08 41.56391 164.52456 36813 ft 617 kts 85°
2026-04-24 15:08 41.57566 164.63808 36818 ft 617 kts 85°
2026-04-24 15:09 41.58731 164.75166 36817 ft 617 kts 85°
2026-04-24 15:09 41.59885 164.86535 36821 ft 617 kts 85°
2026-04-24 15:10 41.61027 164.97900 36820 ft 617 kts 85°
2026-04-24 15:10 41.62160 165.09291 36822 ft 617 kts 85°
2026-04-24 15:11 41.63280 165.20666 36821 ft 617 kts 85°
2026-04-24 15:11 41.64390 165.32060 36821 ft 617 kts 85°
2026-04-24 15:12 41.65489 165.43456 36824 ft 618 kts 85°
2026-04-24 15:12 41.67109 165.60491 36829 ft 618 kts 85°
2026-04-24 15:13 41.68183 165.71937 36836 ft 619 kts 85°
2026-04-24 15:13 41.69244 165.83366 36841 ft 619 kts 85°
2026-04-24 15:14 41.70296 165.94821 36844 ft 619 kts 85°
2026-04-24 15:14 41.71329 166.06195 36848 ft 619 kts 85°
2026-04-24 15:15 41.72356 166.17643 36850 ft 619 kts 85°
2026-04-24 15:15 41.73371 166.29077 36849 ft 618 kts 85°
2026-04-24 15:16 41.74374 166.40512 36853 ft 618 kts 85°
2026-04-24 15:16 41.75366 166.51946 36855 ft 618 kts 85°
2026-04-24 15:17 41.76345 166.63375 36857 ft 617 kts 85°
2026-04-24 15:17 41.77305 166.74705 36861 ft 617 kts 85°
2026-04-24 15:18 41.78262 166.86143 36863 ft 616 kts 85°
2026-04-24 15:18 41.79205 166.97556 36866 ft 615 kts 85°
2026-04-24 15:19 41.80131 167.08895 36867 ft 615 kts 85°
2026-04-24 15:19 41.81050 167.20285 36865 ft 614 kts 85°
2026-04-24 15:20 41.81957 167.31679 36862 ft 614 kts 85°
2026-04-24 15:20 41.82850 167.43042 36863 ft 613 kts 85°
2026-04-24 15:21 41.83734 167.54428 36866 ft 613 kts 85°
2026-04-24 15:21 41.84605 167.65799 36876 ft 613 kts 85°
2026-04-24 15:22 41.85460 167.77111 36879 ft 613 kts 85°
2026-04-24 15:23 41.86729 167.94188 36884 ft 612 kts 85°
2026-04-24 15:23 41.87971 168.11235 36886 ft 611 kts 85°
2026-04-24 15:25 41.89847 168.37690 36898 ft 610 kts 85°
2026-04-24 15:26 41.91909 168.67828 36900 ft 608 kts 85°
2026-04-24 15:27 41.94009 168.99821 36906 ft 606 kts 85°
2026-04-24 15:29 41.96134 169.33668 36910 ft 605 kts 85°
2026-04-24 15:31 41.98489 169.72991 36919 ft 603 kts 86°
2026-04-24 15:33 42.02384 170.17580 36935 ft 600 kts 76°
2026-04-24 15:34 42.06458 170.45027 36946 ft 599 kts 78°
2026-04-24 15:35 42.10325 170.72533 36953 ft 597 kts 78°
2026-04-24 15:36 42.11844 170.83507 36951 ft 596 kts 78°
2026-04-24 15:36 42.14098 170.99958 36956 ft 594 kts 78°
2026-04-24 15:37 42.15587 171.10918 36957 ft 593 kts 79°
2026-04-24 15:37 42.17062 171.21859 36959 ft 593 kts 79°
2026-04-24 15:38 42.18515 171.32718 36958 ft 592 kts 79°
2026-04-24 15:38 42.19965 171.43641 36959 ft 592 kts 79°
2026-04-24 15:39 42.21407 171.54581 36961 ft 591 kts 79°
2026-04-24 15:39 42.22835 171.65503 36968 ft 591 kts 79°
2026-04-24 15:40 42.24257 171.76463 36969 ft 591 kts 79°
2026-04-24 15:40 42.25658 171.87340 36976 ft 592 kts 79°
2026-04-24 15:41 42.27067 171.98369 36979 ft 592 kts 79°
2026-04-24 15:41 42.28448 172.09268 36987 ft 592 kts 80°
2026-04-24 15:42 42.29830 172.20259 36989 ft 593 kts 80°
2026-04-24 15:42 42.31200 172.31243 36988 ft 592 kts 80°
2026-04-24 15:43 42.32560 172.42242 36997 ft 592 kts 80°
2026-04-24 15:43 42.33899 172.53153 36999 ft 592 kts 80°
2026-04-24 15:44 42.35236 172.64135 36997 ft 592 kts 80°
2026-04-24 15:44 42.36562 172.75124 37003 ft 591 kts 80°
2026-04-24 15:45 42.37877 172.86110 37005 ft 591 kts 81°
2026-04-24 15:45 42.39180 172.97090 37003 ft 590 kts 81°
2026-04-24 15:46 42.40472 173.08072 37006 ft 590 kts 81°
2026-04-24 15:46 42.41744 173.18967 37007 ft 590 kts 81°
2026-04-24 15:47 42.43013 173.29938 37006 ft 590 kts 81°
2026-04-24 15:47 42.44271 173.40910 37011 ft 590 kts 81°
2026-04-24 15:48 42.45520 173.51899 37019 ft 590 kts 81°
2026-04-24 15:48 42.46760 173.62897 37024 ft 590 kts 81°
2026-04-24 15:49 42.47990 173.73912 37020 ft 591 kts 81°
2026-04-24 15:49 42.49208 173.84919 37029 ft 591 kts 81°
2026-04-24 15:50 42.50413 173.95904 37030 ft 592 kts 81°
2026-04-24 15:50 42.51610 174.06918 37031 ft 592 kts 81°
2026-04-24 15:51 42.52801 174.17977 37028 ft 592 kts 81°
2026-04-24 15:51 42.53981 174.29031 37032 ft 592 kts 81°
2026-04-24 15:52 42.55150 174.40096 37037 ft 592 kts 81°
2026-04-24 15:52 42.56306 174.51143 37040 ft 592 kts 81°
2026-04-24 15:53 42.57447 174.62150 37037 ft 592 kts 81°
2026-04-24 15:53 42.58583 174.73206 37045 ft 591 kts 81°
2026-04-24 15:54 42.59708 174.84274 37039 ft 591 kts 81°
2026-04-24 15:54 42.60822 174.95329 37044 ft 591 kts 81°
2026-04-24 15:55 42.61925 175.06392 37045 ft 591 kts 82°
2026-04-24 15:55 42.63016 175.17448 37046 ft 590 kts 82°
2026-04-24 15:56 42.64096 175.28505 37050 ft 590 kts 82°
2026-04-24 15:56 42.65159 175.39496 37051 ft 590 kts 82°
2026-04-24 15:57 42.66217 175.50547 37052 ft 590 kts 82°
2026-04-24 15:57 42.67266 175.61620 37053 ft 590 kts 82°
2026-04-24 15:58 42.68303 175.72691 37054 ft 591 kts 82°
2026-04-24 15:58 42.69332 175.83784 37063 ft 591 kts 82°
2026-04-24 15:59 42.70349 175.94869 37065 ft 591 kts 82°
2026-04-24 15:59 42.71357 176.05982 37063 ft 592 kts 82°
2026-04-24 16:00 42.72355 176.17100 37063 ft 592 kts 82°
2026-04-24 16:00 42.73343 176.28231 37066 ft 592 kts 82°
2026-04-24 16:01 42.74320 176.39365 37074 ft 592 kts 82°
2026-04-24 16:01 42.75279 176.50421 37075 ft 592 kts 82°
2026-04-24 16:02 42.76234 176.61549 37069 ft 592 kts 82°
2026-04-24 16:02 42.77180 176.72704 37074 ft 592 kts 82°
2026-04-24 16:03 42.78114 176.83855 37072 ft 593 kts 82°
2026-04-24 16:03 42.79037 176.95007 37072 ft 593 kts 82°
2026-04-24 16:04 42.79945 177.06111 37074 ft 593 kts 82°
2026-04-24 16:04 42.80847 177.17276 37080 ft 594 kts 82°
2026-04-24 16:05 42.82184 177.34074 37083 ft 594 kts 82°
2026-04-24 16:06 42.83495 177.50867 37081 ft 595 kts 82°
2026-04-24 16:07 42.84783 177.67691 37094 ft 596 kts 83°
2026-04-24 16:07 42.86050 177.84566 37090 ft 596 kts 83°
2026-04-24 16:08 42.87286 178.01373 37088 ft 597 kts 83°
2026-04-24 16:09 42.88506 178.18292 37090 ft 598 kts 83°
2026-04-24 16:09 42.89307 178.29600 37095 ft 598 kts 83°
2026-04-24 16:11 42.91256 178.57821 37099 ft 600 kts 83°
2026-04-24 16:11 42.92019 178.69154 37098 ft 600 kts 83°
2026-04-24 16:12 42.93143 178.86163 37099 ft 601 kts 83°
2026-04-24 16:13 42.94244 179.03223 37105 ft 601 kts 83°
2026-04-24 16:14 42.95554 179.24058 37115 ft 602 kts 83°
2026-04-24 16:14 42.96600 179.41137 37104 ft 602 kts 83°
2026-04-24 16:15 42.97729 179.60051 37094 ft 601 kts 83°
2026-04-24 16:16 42.98624 179.75230 37105 ft 601 kts 83°
2026-04-24 16:17 43.00108 -179.96318 36994 ft 597 kts 87°
2026-04-24 16:18 43.01072 -179.73695 37095 ft 598 kts 84°
2026-04-24 16:19 43.01795 -179.56723 37114 ft 599 kts 85°
2026-04-24 16:20 43.02477 -179.39634 37299 ft 602 kts 85°
2026-04-24 16:20 43.02914 -179.28174 37146 ft 602 kts 85°
2026-04-24 16:20 43.03126 -179.22453 37138 ft 602 kts 85°
2026-04-24 16:21 43.03740 -179.05418 37117 ft 599 kts 85°
2026-04-24 16:22 43.04136 -178.94058 37118 ft 598 kts 85°
2026-04-24 16:22 43.04708 -178.77053 37096 ft 596 kts 85°
2026-04-24 16:23 43.05075 -178.65727 37095 ft 595 kts 85°
2026-04-24 16:24 43.05600 -178.48854 37091 ft 594 kts 85°
2026-04-24 16:24 43.05938 -178.37584 37082 ft 594 kts 85°
2026-04-24 16:25 43.06265 -178.26278 37099 ft 594 kts 85°
2026-04-24 16:25 43.06581 -178.14981 37092 ft 595 kts 85°
2026-04-24 16:26 43.07034 -177.97988 37103 ft 596 kts 86°
2026-04-24 16:27 43.07463 -177.81002 37117 ft 596 kts 86°
2026-04-24 16:27 43.07735 -177.69663 37116 ft 596 kts 86°
2026-04-24 16:28 43.07996 -177.58327 37122 ft 596 kts 86°
2026-04-24 16:28 43.08364 -177.41394 37105 ft 595 kts 86°
2026-04-24 16:29 43.08596 -177.30078 37112 ft 595 kts 86°
2026-04-24 16:30 43.09027 -177.07486 37101 ft 593 kts 86°
2026-04-24 16:30 43.09225 -176.96195 37101 ft 593 kts 86°
2026-04-24 16:31 43.09413 -176.84927 37097 ft 592 kts 86°
2026-04-24 16:31 43.09588 -176.73667 37102 ft 592 kts 86°
2026-04-24 16:32 43.09753 -176.62410 37103 ft 591 kts 87°
2026-04-24 16:32 43.09906 -176.51229 37103 ft 591 kts 87°
2026-04-24 16:33 43.10048 -176.39985 37106 ft 591 kts 87°
2026-04-24 16:33 43.10180 -176.28754 37101 ft 590 kts 87°
2026-04-24 16:34 43.10300 -176.17505 36691 ft 590 kts 87°
2026-04-24 16:34 43.10353 -176.11929 36998 ft 584 kts 86°
2026-04-24 16:34 43.10408 -176.06349 37106 ft 590 kts 86°
2026-04-24 16:35 43.10511 -175.94988 37100 ft 598 kts 86°
2026-04-24 16:35 43.10597 -175.83643 37104 ft 596 kts 86°
2026-04-24 16:36 43.10674 -175.72369 37098 ft 597 kts 86°
2026-04-24 16:36 43.10740 -175.61001 37102 ft 597 kts 86°
2026-04-24 16:37 43.10794 -175.49641 37104 ft 597 kts 86°
2026-04-24 16:37 43.10838 -175.38295 37100 ft 596 kts 86°
2026-04-24 16:38 43.10870 -175.26938 37103 ft 596 kts 86°
2026-04-24 16:38 43.10891 -175.15581 37102 ft 596 kts 86°
2026-04-24 16:39 43.10901 -175.04314 37100 ft 596 kts 86°
2026-04-24 16:39 43.10899 -174.92959 37098 ft 596 kts 86°
2026-04-24 16:40 43.10887 -174.81625 37100 ft 596 kts 86°
2026-04-24 16:40 43.10863 -174.70280 37096 ft 596 kts 86°
2026-04-24 16:41 43.10828 -174.58931 37095 ft 596 kts 86°
2026-04-24 16:41 43.10782 -174.47602 37099 ft 595 kts 86°
2026-04-24 16:42 43.10725 -174.36267 37096 ft 595 kts 86°
2026-04-24 16:42 43.10656 -174.25010 37099 ft 595 kts 87°
2026-04-24 16:43 43.10577 -174.13680 37103 ft 595 kts 87°
2026-04-24 16:43 43.10486 -174.02352 37096 ft 595 kts 87°
2026-04-24 16:44 43.10384 -173.91016 37090 ft 595 kts 87°
2026-04-24 16:44 43.10271 -173.79679 37097 ft 595 kts 87°
2026-04-24 16:45 43.10147 -173.68354 37097 ft 595 kts 87°
2026-04-24 16:45 43.10011 -173.57025 37094 ft 595 kts 87°
2026-04-24 16:46 43.09866 -173.45767 37103 ft 595 kts 87°
2026-04-24 16:46 43.09708 -173.34436 37087 ft 595 kts 87°
2026-04-24 16:47 43.09539 -173.23122 37099 ft 595 kts 87°
2026-04-24 16:47 43.09359 -173.11802 37099 ft 595 kts 87°
2026-04-24 16:48 43.09168 -173.00478 37099 ft 595 kts 87°
2026-04-24 16:48 43.08967 -172.89247 37102 ft 595 kts 88°
2026-04-24 16:49 43.08753 -172.77922 37101 ft 595 kts 88°
2026-04-24 16:49 43.08529 -172.66602 37104 ft 595 kts 88°
2026-04-24 16:50 43.08293 -172.55296 37108 ft 595 kts 88°
2026-04-24 16:50 43.08046 -172.43964 37106 ft 595 kts 88°
2026-04-24 16:51 43.07788 -172.32664 37143 ft 594 kts 88°
2026-04-24 16:51 43.07519 -172.21347 37142 ft 594 kts 88°
2026-04-24 16:52 43.07241 -172.10100 37148 ft 594 kts 88°
2026-04-24 16:52 43.06950 -171.98804 37144 ft 594 kts 88°
2026-04-24 16:53 43.06648 -171.87524 37147 ft 594 kts 88°
2026-04-24 16:53 43.06335 -171.76244 37148 ft 594 kts 88°
2026-04-24 16:54 43.06011 -171.64955 37149 ft 594 kts 88°
2026-04-24 16:54 43.05676 -171.53658 37152 ft 594 kts 89°
2026-04-24 16:55 43.05332 -171.42453 37156 ft 593 kts 89°
2026-04-24 16:55 43.04975 -171.31182 37157 ft 593 kts 89°
2026-04-24 16:56 43.04607 -171.19919 37160 ft 593 kts 89°
2026-04-24 16:56 43.04228 -171.08647 37162 ft 593 kts 89°
2026-04-24 16:57 43.03838 -170.97374 37162 ft 593 kts 89°
2026-04-24 16:57 43.03436 -170.86104 37165 ft 593 kts 89°
2026-04-24 16:58 43.03024 -170.74844 37165 ft 593 kts 89°
2026-04-24 16:58 43.02602 -170.63594 37168 ft 593 kts 89°
2026-04-24 16:59 43.02168 -170.52347 37170 ft 593 kts 90°
2026-04-24 17:00 43.01502 -170.35493 37175 ft 592 kts 90°
2026-04-24 17:00 43.00824 -170.18702 37180 ft 592 kts 90°
2026-04-24 17:01 43.00114 -170.01856 37181 ft 592 kts 91°
2026-04-24 17:02 42.99059 -169.85050 37181 ft 590 kts 91°
2026-04-24 17:02 42.98480 -169.73891 37171 ft 588 kts 91°
2026-04-24 17:03 42.97649 -169.59100 37156 ft 585 kts 91°
2026-04-24 17:04 42.97002 -169.48027 37199 ft 583 kts 92°
2026-04-24 17:04 42.96011 -169.31525 37203 ft 580 kts 92°
2026-04-24 17:05 42.95334 -169.20566 37205 ft 578 kts 92°
2026-04-24 17:06 42.94306 -169.04239 37209 ft 577 kts 92°
2026-04-24 17:06 42.93254 -168.87916 37220 ft 575 kts 92°
2026-04-24 17:07 42.92540 -168.77043 37222 ft 574 kts 92°
2026-04-24 17:08 42.91087 -168.55377 37226 ft 572 kts 93°
2026-04-24 17:08 42.90346 -168.44575 37229 ft 572 kts 93°
2026-04-24 17:09 42.88839 -168.23019 37231 ft 570 kts 93°
2026-04-24 17:10 42.87296 -168.01550 37239 ft 569 kts 94°
2026-04-24 17:12 42.84098 -167.58741 37247 ft 567 kts 94°
2026-04-24 18:54 40.72984 -146.25444 39435 ft 525 kts 95°
2026-04-24 18:55 40.71704 -146.11107 39437 ft 524 kts 95°
2026-04-24 18:56 40.70843 -146.01568 39437 ft 523 kts 96°
2026-04-24 18:56 40.69973 -145.92036 39433 ft 523 kts 96°
2026-04-24 18:57 40.69102 -145.82569 39439 ft 522 kts 96°
2026-04-24 18:57 40.68220 -145.73067 39438 ft 522 kts 96°
2026-04-24 18:58 40.67329 -145.63559 39436 ft 522 kts 96°
2026-04-24 18:58 40.66431 -145.54069 39438 ft 522 kts 96°
2026-04-24 18:59 40.65527 -145.44592 39437 ft 522 kts 96°
2026-04-24 18:59 40.64613 -145.35097 39439 ft 522 kts 96°
2026-04-24 19:00 40.63698 -145.25677 39441 ft 522 kts 96°
2026-04-24 19:00 40.62769 -145.16191 39446 ft 522 kts 96°
2026-04-24 19:01 40.61834 -145.06725 39445 ft 521 kts 96°
2026-04-24 19:01 40.60892 -144.97267 39454 ft 521 kts 96°
2026-04-24 19:02 40.60104 -144.89420 39460 ft 521 kts 96°
2026-04-24 19:02 40.58986 -144.78378 39458 ft 520 kts 96°
2026-04-24 19:03 40.58029 -144.69009 39458 ft 519 kts 96°
2026-04-24 19:03 40.57058 -144.59581 39464 ft 518 kts 96°
2026-04-24 19:04 40.56083 -144.50198 39461 ft 517 kts 96°
2026-04-24 19:04 40.55104 -144.40836 39459 ft 516 kts 96°
2026-04-24 19:05 40.54125 -144.31565 39458 ft 514 kts 96°
2026-04-24 19:05 40.53136 -144.22259 39453 ft 513 kts 96°
2026-04-24 19:06 40.52141 -144.12972 39457 ft 513 kts 96°
2026-04-24 19:06 40.51138 -144.03687 39455 ft 512 kts 96°
2026-04-24 19:07 40.50130 -143.94422 39451 ft 511 kts 96°
2026-04-24 19:07 40.49287 -143.86729 39454 ft 511 kts 96°
2026-04-24 19:08 40.48100 -143.75986 39457 ft 511 kts 96°
2026-04-24 19:08 40.47071 -143.66736 39457 ft 511 kts 96°
2026-04-24 19:09 40.46035 -143.57498 39460 ft 511 kts 96°
2026-04-24 19:09 40.44999 -143.48337 39461 ft 510 kts 96°
2026-04-24 19:10 40.43951 -143.39125 39465 ft 510 kts 96°
2026-04-24 19:10 40.42895 -143.29913 39465 ft 509 kts 96°
2026-04-24 19:11 40.41833 -143.20715 39464 ft 509 kts 96°
2026-04-24 19:11 40.40766 -143.11539 39467 ft 508 kts 96°
2026-04-24 19:12 40.39701 -143.02453 39462 ft 507 kts 96°
2026-04-24 19:12 40.38623 -142.93306 39462 ft 506 kts 96°
2026-04-24 19:13 40.37724 -142.85733 39461 ft 505 kts 96°
2026-04-24 19:13 40.36453 -142.75098 39459 ft 504 kts 96°
2026-04-24 19:14 40.35367 -142.66084 39447 ft 503 kts 96°
2026-04-24 19:14 40.34271 -142.57040 39443 ft 502 kts 96°
2026-04-24 19:15 40.33165 -142.47978 39453 ft 502 kts 96°
2026-04-24 19:15 40.32055 -142.38944 39454 ft 501 kts 96°
2026-04-24 19:16 40.30379 -142.25416 39453 ft 501 kts 96°
2026-04-24 19:16 40.29254 -142.16408 39452 ft 501 kts 96°
2026-04-24 19:17 40.28123 -142.07408 39459 ft 501 kts 96°
2026-04-24 19:17 40.26990 -141.98454 39455 ft 501 kts 96°
2026-04-24 19:18 40.25843 -141.89455 39451 ft 501 kts 96°
2026-04-24 19:18 40.24690 -141.80452 39453 ft 501 kts 96°
2026-04-24 19:19 40.23535 -141.71504 39451 ft 500 kts 96°
2026-04-24 19:19 40.22369 -141.62520 39449 ft 500 kts 96°
2026-04-24 19:20 40.21198 -141.53557 39455 ft 500 kts 96°
2026-04-24 19:20 40.20020 -141.44591 39458 ft 500 kts 96°
2026-04-24 19:21 40.18834 -141.35628 39454 ft 499 kts 96°
2026-04-24 19:21 40.17644 -141.26685 39451 ft 499 kts 96°
2026-04-24 19:22 40.16449 -141.17755 39448 ft 498 kts 96°
2026-04-24 19:22 40.15248 -141.08843 39448 ft 498 kts 96°
2026-04-24 19:23 40.14045 -140.99965 39445 ft 498 kts 96°
2026-04-24 19:23 40.12830 -140.91049 39444 ft 498 kts 96°
2026-04-24 19:24 40.11608 -140.82143 39443 ft 498 kts 96°
2026-04-24 19:24 40.10378 -140.73227 39443 ft 498 kts 96°
2026-04-24 19:25 40.09141 -140.64311 39438 ft 498 kts 96°
2026-04-24 19:25 40.07905 -140.55460 39439 ft 499 kts 96°
2026-04-24 19:26 40.06654 -140.46549 39440 ft 499 kts 96°
2026-04-24 19:26 40.05602 -140.39076 39439 ft 499 kts 96°
2026-04-24 19:27 40.04349 -140.30206 39436 ft 500 kts 96°
2026-04-24 19:27 40.03083 -140.21291 39436 ft 500 kts 96°
2026-04-24 19:28 40.01808 -140.12360 39434 ft 501 kts 97°
2026-04-24 19:28 40.00526 -140.03428 39437 ft 501 kts 97°
2026-04-24 19:29 39.99227 -139.89967 39434 ft 496 kts 89°
2026-04-24 19:30 39.98851 -139.81015 39432 ft 497 kts 90°
2026-04-24 19:30 39.98375 -139.71999 39433 ft 498 kts 90°
2026-04-24 19:31 39.97855 -139.63001 39433 ft 498 kts 91°
2026-04-24 19:31 39.97324 -139.53998 39433 ft 498 kts 91°
2026-04-24 19:32 39.96790 -139.45050 39432 ft 498 kts 91°
2026-04-24 19:32 39.96243 -139.36054 39427 ft 498 kts 91°
2026-04-24 19:33 39.95686 -139.27058 39424 ft 498 kts 91°
2026-04-24 19:33 39.95121 -139.18047 39415 ft 498 kts 91°
2026-04-24 19:34 39.94550 -139.09051 39420 ft 498 kts 92°
2026-04-24 19:34 39.93975 -139.00118 39419 ft 498 kts 92°
2026-04-24 19:35 39.93390 -138.91123 39416 ft 498 kts 92°
2026-04-24 19:35 39.92798 -138.82123 39413 ft 498 kts 92°
2026-04-24 19:36 39.92198 -138.73130 39410 ft 498 kts 92°
2026-04-24 19:36 39.91594 -138.64172 39408 ft 498 kts 92°
2026-04-24 19:37 39.90979 -138.55161 39413 ft 498 kts 93°
2026-04-24 19:37 39.90359 -138.46162 39403 ft 499 kts 93°
2026-04-24 19:38 39.89735 -138.37217 39407 ft 499 kts 93°
2026-04-24 19:38 39.89100 -138.28228 39401 ft 499 kts 93°
2026-04-24 19:39 39.88459 -138.19238 39402 ft 499 kts 93°
2026-04-24 19:39 39.87810 -138.10243 39401 ft 498 kts 94°
2026-04-24 19:40 39.87155 -138.01263 39396 ft 498 kts 94°
2026-04-24 19:40 39.86494 -137.92287 39392 ft 498 kts 94°
2026-04-24 19:41 39.85825 -137.83308 39389 ft 498 kts 94°
2026-04-24 19:41 39.85150 -137.74341 39384 ft 498 kts 94°
2026-04-24 19:42 39.84466 -137.65351 39384 ft 498 kts 94°
2026-04-24 19:42 39.83777 -137.56381 39381 ft 498 kts 94°
2026-04-24 19:43 39.83084 -137.47445 39381 ft 499 kts 95°
2026-04-24 19:43 39.82380 -137.38466 39379 ft 499 kts 95°
2026-04-24 19:44 39.81667 -137.29471 39374 ft 500 kts 95°
2026-04-24 19:44 39.80947 -137.20470 39372 ft 500 kts 95°
2026-04-24 19:45 39.80219 -137.11459 39369 ft 501 kts 95°
2026-04-24 19:45 39.79484 -137.02448 39371 ft 501 kts 95°
2026-04-24 19:46 39.78741 -136.93423 39363 ft 502 kts 95°
2026-04-24 19:46 39.77991 -136.84399 39367 ft 502 kts 95°
2026-04-24 19:47 39.77233 -136.75371 39364 ft 503 kts 95°
2026-04-24 19:47 39.76472 -136.66387 39360 ft 503 kts 96°
2026-04-24 19:48 39.75699 -136.57350 39359 ft 503 kts 96°
2026-04-24 19:48 39.74525 -136.43787 39356 ft 503 kts 96°
2026-04-24 19:49 39.72940 -136.25757 39349 ft 503 kts 96°
2026-04-24 19:50 39.71324 -136.07704 39343 ft 503 kts 96°
2026-04-24 19:51 39.70094 -135.94167 39342 ft 503 kts 97°
2026-04-24 19:52 39.68847 -135.80626 39339 ft 503 kts 97°
2026-04-24 19:52 39.68007 -135.71601 39338 ft 503 kts 97°
2026-04-24 19:53 39.67165 -135.62639 39334 ft 503 kts 97°
2026-04-24 19:54 39.65883 -135.49121 39330 ft 503 kts 97°
2026-04-24 19:54 39.65018 -135.40095 39329 ft 503 kts 97°
2026-04-24 19:55 39.64294 -135.32605 39326 ft 503 kts 97°
2026-04-24 19:55 39.63274 -135.22129 39323 ft 503 kts 97°
2026-04-24 19:56 39.62389 -135.13129 39319 ft 503 kts 97°
2026-04-24 19:56 39.61498 -135.04133 39319 ft 503 kts 97°
2026-04-24 19:57 39.60600 -134.95136 39316 ft 503 kts 97°
2026-04-24 19:57 39.59695 -134.86142 39315 ft 503 kts 97°
2026-04-24 19:58 39.58783 -134.77150 39307 ft 503 kts 98°
2026-04-24 19:58 39.57869 -134.68207 39304 ft 503 kts 98°
2026-04-24 19:59 39.56942 -134.59216 39309 ft 503 kts 98°
2026-04-24 19:59 39.56010 -134.50236 39307 ft 502 kts 98°
2026-04-24 20:00 39.55070 -134.41255 39301 ft 502 kts 98°
2026-04-24 20:00 39.54125 -134.32289 39298 ft 502 kts 98°
2026-04-24 20:01 39.53173 -134.23325 39290 ft 502 kts 98°
2026-04-24 20:01 39.52220 -134.14426 39292 ft 502 kts 98°
2026-04-24 20:02 39.51411 -134.06916 39300 ft 502 kts 98°
2026-04-24 20:02 39.50279 -133.96492 39291 ft 502 kts 98°
2026-04-24 20:03 39.49300 -133.87535 39295 ft 502 kts 98°
2026-04-24 20:03 39.48312 -133.78575 39290 ft 502 kts 98°
2026-04-24 20:04 39.47318 -133.69626 39288 ft 502 kts 98°
2026-04-24 20:04 39.46317 -133.60673 39282 ft 502 kts 98°
2026-04-24 20:05 39.45318 -133.51792 39281 ft 502 kts 99°
2026-04-24 20:05 39.44303 -133.42845 39280 ft 502 kts 99°
2026-04-24 20:06 39.43281 -133.33898 39278 ft 502 kts 99°
2026-04-24 20:06 39.42254 -133.24964 39274 ft 502 kts 99°
2026-04-24 20:07 39.41394 -133.17538 39270 ft 502 kts 99°
2026-04-24 20:07 39.40184 -133.07152 39268 ft 502 kts 99°
2026-04-24 20:08 39.39135 -132.98216 39271 ft 502 kts 99°
2026-04-24 20:08 39.38078 -132.89274 39267 ft 502 kts 99°
2026-04-24 20:09 39.37016 -132.80348 39268 ft 502 kts 99°
2026-04-24 20:09 39.35948 -132.71429 39264 ft 502 kts 99°
2026-04-24 20:10 39.34878 -132.62557 39260 ft 502 kts 99°
2026-04-24 20:10 39.33794 -132.53631 39261 ft 502 kts 99°
2026-04-24 20:11 39.32706 -132.44723 39258 ft 502 kts 99°
2026-04-24 20:11 39.31609 -132.35806 39257 ft 502 kts 99°
2026-04-24 20:12 39.30506 -132.26891 39250 ft 502 kts 99°
2026-04-24 20:12 39.29583 -132.19482 39248 ft 503 kts 99°
2026-04-24 20:13 39.28285 -132.09127 39247 ft 503 kts 100°
2026-04-24 20:13 39.27159 -132.00202 39247 ft 503 kts 100°
2026-04-24 20:14 39.26218 -131.92793 39245 ft 503 kts 100°
2026-04-24 20:14 39.25081 -131.83881 39242 ft 503 kts 100°
2026-04-24 20:15 39.23936 -131.74973 39242 ft 503 kts 100°
2026-04-24 20:15 39.22786 -131.66073 39241 ft 504 kts 100°
2026-04-24 20:16 39.21633 -131.57212 39237 ft 504 kts 100°
2026-04-24 20:16 39.20461 -131.48254 39233 ft 504 kts 100°
2026-04-24 20:17 39.19294 -131.39393 39233 ft 504 kts 100°
2026-04-24 20:17 39.17519 -131.26019 39228 ft 504 kts 101°
2026-04-24 20:18 39.16327 -131.17100 39226 ft 505 kts 101°
2026-04-24 20:18 39.15128 -131.08190 39224 ft 505 kts 101°
2026-04-24 20:19 39.13929 -130.99327 39222 ft 505 kts 101°
2026-04-24 20:19 39.12713 -130.90396 39220 ft 506 kts 101°
2026-04-24 20:20 39.11491 -130.81467 39218 ft 506 kts 101°
2026-04-24 20:20 39.10260 -130.72533 39214 ft 506 kts 101°
2026-04-24 20:21 39.09024 -130.63610 39212 ft 507 kts 101°
2026-04-24 20:21 39.07786 -130.54727 39209 ft 507 kts 101°
2026-04-24 20:22 39.06535 -130.45802 39208 ft 507 kts 101°
2026-04-24 20:22 39.05279 -130.36869 39209 ft 507 kts 101°
2026-04-24 20:23 39.04018 -130.27933 39205 ft 507 kts 101°
2026-04-24 20:23 39.02750 -130.18992 39204 ft 508 kts 101°
2026-04-24 20:24 39.01476 -130.10061 39196 ft 508 kts 101°
2026-04-24 20:24 39.00044 -130.01230 39193 ft 507 kts 105°
2026-04-24 20:25 38.97978 -129.92568 39190 ft 506 kts 112°
2026-04-24 20:25 38.95592 -129.84044 39186 ft 507 kts 111°
2026-04-24 20:26 38.93256 -129.75497 39186 ft 507 kts 111°
2026-04-24 20:26 38.90898 -129.66946 39191 ft 507 kts 111°
2026-04-24 20:27 38.88547 -129.58470 39181 ft 508 kts 111°
2026-04-24 20:27 38.86165 -129.49917 39185 ft 508 kts 111°
2026-04-24 20:28 38.83777 -129.41371 39180 ft 508 kts 111°
2026-04-24 20:28 38.81379 -129.32816 39179 ft 509 kts 111°
2026-04-24 20:29 38.78997 -129.24341 39178 ft 509 kts 111°
2026-04-24 20:29 38.76589 -129.15807 39170 ft 509 kts 111°
2026-04-24 20:30 38.74176 -129.07280 39182 ft 509 kts 111°
2026-04-24 20:30 38.71753 -128.98749 39163 ft 509 kts 111°
2026-04-24 20:31 38.69323 -128.90218 39162 ft 509 kts 112°
2026-04-24 20:31 38.66903 -128.81750 39149 ft 510 kts 112°
2026-04-24 20:32 38.64463 -128.73239 39152 ft 510 kts 112°
2026-04-24 20:32 38.62017 -128.64735 39152 ft 510 kts 112°
2026-04-24 20:33 38.59559 -128.56215 39168 ft 510 kts 112°
2026-04-24 20:33 38.57099 -128.47717 39162 ft 510 kts 112°
2026-04-24 20:34 38.54631 -128.39217 39160 ft 510 kts 112°
2026-04-24 20:34 38.52154 -128.30714 39154 ft 510 kts 112°
2026-04-24 20:35 38.49688 -128.22276 39135 ft 511 kts 112°
2026-04-24 20:35 38.47200 -128.13791 39138 ft 511 kts 112°
2026-04-24 20:36 38.44702 -128.05294 39139 ft 511 kts 112°
2026-04-24 20:36 38.42198 -127.96807 39138 ft 511 kts 112°
2026-04-24 20:37 38.39685 -127.88315 39132 ft 511 kts 112°
2026-04-24 20:37 38.37166 -127.79828 39129 ft 512 kts 112°
2026-04-24 20:38 38.34655 -127.71396 39132 ft 512 kts 112°
2026-04-24 20:38 38.32122 -127.62917 39131 ft 512 kts 112°
2026-04-24 20:39 38.29580 -127.54432 39127 ft 512 kts 113°
2026-04-24 20:39 38.27031 -127.45951 39125 ft 513 kts 113°
2026-04-24 20:40 38.24475 -127.37474 39126 ft 513 kts 113°
2026-04-24 20:40 38.21910 -127.28994 39121 ft 513 kts 113°
2026-04-24 20:41 38.19355 -127.20570 39119 ft 513 kts 113°
2026-04-24 20:41 38.16779 -127.12106 39116 ft 513 kts 113°
2026-04-24 20:42 38.14195 -127.03631 39113 ft 514 kts 113°
2026-04-24 20:42 38.12080 -126.94961 39110 ft 516 kts 105°
2026-04-24 20:43 38.10399 -126.86094 39107 ft 516 kts 105°
2026-04-24 20:43 38.08700 -126.77238 39106 ft 517 kts 105°
2026-04-24 20:44 38.06997 -126.68426 39105 ft 517 kts 105°
2026-04-24 20:44 38.05271 -126.59557 39108 ft 517 kts 105°
2026-04-24 20:45 38.03538 -126.50693 39103 ft 518 kts 105°
2026-04-24 20:45 38.01796 -126.41823 39099 ft 518 kts 105°
2026-04-24 20:46 38.00059 -126.33012 39097 ft 518 kts 105°
2026-04-24 20:46 37.98300 -126.24132 39095 ft 519 kts 105°
2026-04-24 20:47 37.96536 -126.15262 39093 ft 519 kts 106°
2026-04-24 20:47 37.94763 -126.06383 39091 ft 519 kts 106°
2026-04-24 20:48 37.92983 -125.97512 39085 ft 519 kts 106°
2026-04-24 20:48 37.91195 -125.88634 39084 ft 520 kts 106°
2026-04-24 20:49 37.89403 -125.79774 39079 ft 520 kts 106°
2026-04-24 20:49 37.87611 -125.70953 39080 ft 520 kts 106°
2026-04-24 20:50 37.85802 -125.62084 39076 ft 521 kts 106°
2026-04-24 20:50 37.83981 -125.53195 39074 ft 521 kts 106°
2026-04-24 20:51 37.82156 -125.44318 39074 ft 522 kts 106°
2026-04-24 20:51 37.80320 -125.35431 39072 ft 522 kts 106°
2026-04-24 20:52 37.78478 -125.26548 39066 ft 522 kts 106°
2026-04-24 20:52 37.76629 -125.17666 39063 ft 523 kts 107°
2026-04-24 20:53 37.74770 -125.08778 39064 ft 523 kts 107°
2026-04-24 20:53 37.72903 -124.99887 39063 ft 524 kts 107°
2026-04-24 20:54 37.71038 -124.91039 39058 ft 524 kts 107°
2026-04-24 20:54 37.69155 -124.82142 39062 ft 524 kts 107°
2026-04-24 20:55 37.67266 -124.73254 39056 ft 524 kts 107°
2026-04-24 20:55 37.65365 -124.64345 39053 ft 525 kts 107°
2026-04-24 20:56 37.63471 -124.55503 39049 ft 525 kts 107°
2026-04-24 20:56 37.61558 -124.46609 39044 ft 525 kts 107°
2026-04-24 20:57 37.59633 -124.37697 39045 ft 525 kts 107°
2026-04-24 20:57 37.57704 -124.28802 39050 ft 526 kts 107°
2026-04-24 20:58 37.55779 -124.19955 39046 ft 526 kts 107°
2026-04-24 20:58 37.53836 -124.11064 39044 ft 526 kts 107°
2026-04-24 20:59 37.51886 -124.02177 39042 ft 527 kts 107°
2026-04-24 20:59 37.49925 -123.93277 39036 ft 527 kts 107°
2026-04-24 21:00 37.47959 -123.84386 39035 ft 527 kts 107°
2026-04-24 21:00 37.45985 -123.75491 39035 ft 528 kts 107°
2026-04-24 21:01 37.44001 -123.66590 39029 ft 528 kts 108°
2026-04-24 21:01 37.42347 -123.59196 39031 ft 529 kts 108°
2026-04-24 21:02 37.40019 -123.48830 39035 ft 529 kts 108°
2026-04-24 21:02 37.38010 -123.39917 39037 ft 530 kts 108°
2026-04-24 21:03 37.36332 -123.32505 39035 ft 530 kts 108°
2026-04-24 21:03 37.34309 -123.23592 39035 ft 530 kts 108°
2026-04-24 21:04 37.32276 -123.14674 39031 ft 530 kts 108°
2026-04-24 21:04 37.30237 -123.05765 39034 ft 531 kts 108°
2026-04-24 21:05 37.28188 -122.96834 39027 ft 531 kts 108°
2026-04-24 21:05 37.25749 -122.88174 39021 ft 528 kts 117°
2026-04-24 21:06 37.22280 -122.80099 39015 ft 524 kts 127°
2026-04-24 21:06 37.18117 -122.72623 39015 ft 523 kts 128°
2026-04-24 21:07 37.13957 -122.65130 39014 ft 523 kts 128°
2026-04-24 21:07 37.09786 -122.57647 39024 ft 524 kts 128°
2026-04-24 21:08 37.05600 -122.50167 39026 ft 524 kts 129°
2026-04-24 21:08 37.01407 -122.42693 39021 ft 524 kts 129°
2026-04-24 21:09 36.97207 -122.35225 39025 ft 525 kts 129°
2026-04-24 21:09 36.93032 -122.27816 39027 ft 525 kts 129°
2026-04-24 21:10 36.88819 -122.20356 39025 ft 525 kts 129°
2026-04-24 21:10 36.84598 -122.12899 39021 ft 526 kts 129°
2026-04-24 21:11 36.80374 -122.05453 39022 ft 526 kts 129°
2026-04-24 21:11 36.76141 -121.98008 39030 ft 526 kts 129°
2026-04-24 21:12 36.71897 -121.90561 39023 ft 527 kts 129°
2026-04-24 21:12 36.67646 -121.83115 39023 ft 527 kts 129°
2026-04-24 21:13 36.63391 -121.75681 39021 ft 528 kts 129°
2026-04-24 21:13 36.59114 -121.68224 39011 ft 528 kts 130°
2026-04-24 21:14 36.54840 -121.60788 39000 ft 529 kts 130°
2026-04-24 21:14 36.50583 -121.53400 38994 ft 528 kts 130°
2026-04-24 21:15 36.46303 -121.45984 39003 ft 528 kts 130°
2026-04-24 21:15 36.42007 -121.38560 38985 ft 530 kts 130°
2026-04-24 21:16 36.37701 -121.31134 39001 ft 531 kts 130°
2026-04-24 21:16 36.33378 -121.23695 38996 ft 532 kts 130°
2026-04-24 21:17 36.29137 -121.16411 38988 ft 532 kts 130°
2026-04-24 21:17 36.24790 -121.08964 38986 ft 533 kts 130°
2026-04-24 21:18 36.20429 -121.01507 38981 ft 534 kts 130°
2026-04-24 21:18 36.16102 -120.94124 38983 ft 534 kts 130°
2026-04-24 21:19 36.11735 -120.86691 38971 ft 534 kts 131°
2026-04-24 21:19 36.07364 -120.79266 38966 ft 534 kts 131°
2026-04-24 21:20 36.00800 -120.68143 38961 ft 534 kts 131°
2026-04-24 21:21 35.96409 -120.60725 38968 ft 534 kts 131°
2026-04-24 21:21 35.92012 -120.53313 38971 ft 535 kts 131°
2026-04-24 21:22 35.87610 -120.45908 38962 ft 535 kts 131°
2026-04-24 21:22 35.83231 -120.38555 38965 ft 535 kts 131°
2026-04-24 21:23 35.78815 -120.31159 38957 ft 536 kts 131°
2026-04-24 21:23 35.74380 -120.23747 38952 ft 537 kts 131°
2026-04-24 21:24 35.69907 -120.16373 38938 ft 535 kts 135°
2026-04-24 21:24 35.64722 -120.09936 38947 ft 525 kts 147°
2026-04-24 21:25 35.58784 -120.04863 38947 ft 516 kts 156°
2026-04-24 21:25 35.52679 -120.00292 38942 ft 517 kts 155°
2026-04-24 21:26 35.46558 -119.95676 38705 ft 512 kts 156°
2026-04-24 21:26 35.43533 -119.93398 38448 ft 508 kts 156°
2026-04-24 21:26 35.40520 -119.91136 38156 ft 507 kts 156°
2026-04-24 21:26 35.37508 -119.88877 37893 ft 508 kts 156°
2026-04-24 21:27 35.34485 -119.86616 37352 ft 510 kts 156°
2026-04-24 21:27 35.31450 -119.84347 36677 ft 511 kts 157°
2026-04-24 21:27 35.28428 -119.82011 35863 ft 517 kts 153°
2026-04-24 21:27 35.25582 -119.79378 35030 ft 522 kts 151°
2026-04-24 21:28 35.22702 -119.76663 34167 ft 524 kts 152°
2026-04-24 21:28 35.19797 -119.73938 33172 ft 526 kts 152°
2026-04-24 21:28 35.16892 -119.71220 32440 ft 522 kts 152°
2026-04-24 21:28 35.14033 -119.68543 32000 ft 513 kts 152°
2026-04-24 21:29 35.11226 -119.65917 31538 ft 504 kts 152°
2026-04-24 21:29 35.08438 -119.63321 30918 ft 501 kts 152°
2026-04-24 21:29 35.05707 -119.60783 30334 ft 497 kts 152°
2026-04-24 21:29 35.02962 -119.58235 29691 ft 494 kts 152°
2026-04-24 21:30 35.00250 -119.55717 29088 ft 488 kts 152°
2026-04-24 21:30 34.97554 -119.53215 28496 ft 484 kts 152°
2026-04-24 21:30 34.94886 -119.50740 27904 ft 480 kts 151°
2026-04-24 21:30 34.92242 -119.48292 27313 ft 476 kts 151°
2026-04-24 21:31 34.89609 -119.45870 26717 ft 472 kts 152°
2026-04-24 21:31 34.86979 -119.43513 26144 ft 467 kts 152°
2026-04-24 21:31 34.84356 -119.41182 25555 ft 464 kts 152°
2026-04-24 21:31 34.81757 -119.38872 24976 ft 462 kts 152°
2026-04-24 21:32 34.79164 -119.36563 24401 ft 460 kts 152°
2026-04-24 21:32 34.76631 -119.34303 23987 ft 454 kts 152°
2026-04-24 21:32 34.74117 -119.32053 23758 ft 443 kts 152°
2026-04-24 21:32 34.71620 -119.29857 23087 ft 443 kts 153°
2026-04-24 21:33 34.69126 -119.27690 22607 ft 437 kts 153°
2026-04-24 21:33 34.67488 -119.26266 22284 ft 434 kts 152°
2026-04-24 21:33 34.64237 -119.23435 21659 ft 427 kts 152°
2026-04-24 21:33 34.61829 -119.21353 21172 ft 422 kts 152°
2026-04-24 21:34 34.59443 -119.19302 20569 ft 417 kts 152°
2026-04-24 21:34 34.57111 -119.17296 19930 ft 411 kts 152°
2026-04-24 21:34 34.54793 -119.15292 19324 ft 405 kts 151°
2026-04-24 21:34 34.52536 -119.13297 18728 ft 400 kts 150°
2026-04-24 21:35 34.50319 -119.11320 18288 ft 391 kts 150°
2026-04-24 21:35 34.48146 -119.09388 17765 ft 384 kts 150°
2026-04-24 21:35 34.46017 -119.07499 17344 ft 374 kts 150°
2026-04-24 21:35 34.43938 -119.05656 16865 ft 368 kts 150°
2026-04-24 21:36 34.41875 -119.03854 16414 ft 362 kts 150°
2026-04-24 21:36 34.39839 -119.02096 15972 ft 356 kts 150°
2026-04-24 21:36 34.37857 -119.00390 15547 ft 352 kts 150°
2026-04-24 21:36 34.35864 -118.98674 15088 ft 351 kts 150°
2026-04-24 21:37 34.33879 -118.96961 14652 ft 350 kts 149°
2026-04-24 21:37 34.31920 -118.95222 14209 ft 349 kts 148°
2026-04-24 21:37 34.29987 -118.93454 13945 ft 342 kts 147°
2026-04-24 21:37 34.28132 -118.91746 13833 ft 330 kts 148°
2026-04-24 21:38 34.26334 -118.90098 13659 ft 317 kts 148°
2026-04-24 21:38 34.24621 -118.88533 13490 ft 300 kts 148°
2026-04-24 21:38 34.23003 -118.87042 13333 ft 284 kts 148°
2026-04-24 21:38 34.21471 -118.85627 13147 ft 270 kts 148°
2026-04-24 21:39 34.19979 -118.84258 12615 ft 270 kts 148°
2026-04-24 21:39 34.18477 -118.82885 12161 ft 269 kts 148°
2026-04-24 21:39 34.17005 -118.81536 11996 ft 262 kts 148°
2026-04-24 21:39 34.15622 -118.80145 11849 ft 265 kts 142°
2026-04-24 21:40 34.14256 -118.78650 11572 ft 264 kts 142°
2026-04-24 21:40 34.12900 -118.77167 11311 ft 262 kts 142°
2026-04-24 21:40 34.11551 -118.75694 11064 ft 260 kts 142°
2026-04-24 21:40 34.10203 -118.74227 10816 ft 259 kts 142°
2026-04-24 21:41 34.08863 -118.72771 10558 ft 258 kts 142°
2026-04-24 21:41 34.07531 -118.71326 10327 ft 256 kts 141°
2026-04-24 21:41 34.06204 -118.69883 10104 ft 257 kts 141°
2026-04-24 21:41 34.04873 -118.68442 9848 ft 255 kts 141°
2026-04-24 21:42 34.03602 -118.66997 9580 ft 254 kts 130°
2026-04-24 21:42 34.02987 -118.65738 9434 ft 256 kts 110°
2026-04-24 21:43 34.02681 -118.63614 9187 ft 258 kts 96°
2026-04-24 21:43 34.02503 -118.61463 8936 ft 258 kts 97°
2026-04-24 21:43 34.02307 -118.59321 8697 ft 256 kts 97°
2026-04-24 21:43 34.02106 -118.57195 8451 ft 254 kts 97°
2026-04-24 21:44 34.01904 -118.55085 8212 ft 252 kts 97°
2026-04-24 21:44 34.01704 -118.52986 7981 ft 253 kts 97°
2026-04-24 21:44 34.01510 -118.50924 7739 ft 250 kts 97°
2026-04-24 21:44 34.01311 -118.48822 7493 ft 253 kts 97°
2026-04-24 21:45 34.01116 -118.46714 7255 ft 253 kts 95°
2026-04-24 21:45 34.01185 -118.44601 7013 ft 253 kts 80°
2026-04-24 21:45 34.01563 -118.42543 6819 ft 249 kts 77°
2026-04-24 21:45 34.01926 -118.40516 6539 ft 245 kts 78°
2026-04-24 21:46 34.02269 -118.38515 6266 ft 242 kts 78°
2026-04-24 21:46 34.02608 -118.36517 6077 ft 245 kts 78°
2026-04-24 21:46 34.02864 -118.34544 5934 ft 239 kts 84°
2026-04-24 21:46 34.03054 -118.32561 5649 ft 238 kts 83°
2026-04-24 21:47 34.03251 -118.30585 5248 ft 236 kts 83°
2026-04-24 21:47 34.03386 -118.29261 5004 ft 235 kts 83°
2026-04-24 21:47 34.03646 -118.26664 4511 ft 232 kts 84°
2026-04-24 21:47 34.03837 -118.24766 4159 ft 230 kts 84°
2026-04-24 21:48 34.03966 -118.23478 3930 ft 229 kts 84°
2026-04-24 21:48 34.04156 -118.21572 3568 ft 228 kts 84°
2026-04-24 21:48 34.04406 -118.19073 3077 ft 226 kts 84°
2026-04-24 21:48 34.04598 -118.17186 2735 ft 227 kts 85°
2026-04-24 21:49 34.04767 -118.15295 2625 ft 225 kts 93°
2026-04-24 21:49 34.04588 -118.14077 2599 ft 222 kts 115°
2026-04-24 21:49 34.03664 -118.12661 2604 ft 216 kts 149°
2026-04-24 21:49 34.01770 -118.12199 2601 ft 210 kts 195°
2026-04-24 21:50 34.00890 -118.12668 2599 ft 210 kts 217°
2026-04-24 21:50 33.99906 -118.13972 2598 ft 212 kts 231°
2026-04-24 21:50 33.99010 -118.15387 2601 ft 212 kts 231°
2026-04-24 21:50 33.98129 -118.16811 2610 ft 212 kts 235°
2026-04-24 21:51 33.97514 -118.18426 2624 ft 213 kts 252°
2026-04-24 21:51 33.97231 -118.20170 2618 ft 209 kts 260°
2026-04-24 21:51 33.97080 -118.21899 2621 ft 207 kts 261°
2026-04-24 21:51 33.96899 -118.23597 2632 ft 201 kts 261°
2026-04-24 21:52 33.96740 -118.25226 2610 ft 191 kts 261°
2026-04-24 21:52 33.96580 -118.26755 2417 ft 182 kts 260°
2026-04-24 21:52 33.96428 -118.28261 2142 ft 183 kts 261°
2026-04-24 21:52 33.96273 -118.29774 1889 ft 182 kts 259°
2026-04-24 21:53 33.96128 -118.31222 1656 ft 161 kts 259°
2026-04-24 21:53 33.95998 -118.32494 1439 ft 146 kts 257°
2026-04-24 21:53 33.95879 -118.33675 1244 ft 143 kts 259°
2026-04-24 21:53 33.95754 -118.34855 1045 ft 141 kts 258°
2026-04-24 21:54 33.95628 -118.36043 814 ft 142 kts 260°
2026-04-24 21:54 33.95511 -118.37200 635 ft 136 kts 261°
2026-04-24 21:54 33.95399 -118.38344 490 ft 137 kts 262°
2026-04-24 21:54 33.95288 -118.39466 274 ft 135 kts 261°
2026-04-24 21:55 33.95174 -118.40582 133 ft 131 kts 261°
2026-04-24 21:55 33.95087 -118.41448 127 ft 78 kts 265°
2026-04-24 21:55 33.94990 -118.41827 125 ft 17 kts 238°
2026-04-24 21:55 33.94935 -118.41929 127 ft 14 kts 236°
2026-04-24 21:56 33.94875 -118.42028 127 ft 15 kts 233°
2026-04-24 21:56 33.94812 -118.42128 126 ft 15 kts 232°
2026-04-24 21:56 33.94746 -118.42231 128 ft 13 kts 224°
2026-04-24 21:56 33.94700 -118.42232 127 ft 4 kts 116°
2026-04-24 21:57 33.94691 -118.42176 120 ft 9 kts 89°
2026-04-24 21:57 33.94700 -118.42079 127 ft 14 kts 83°
2026-04-24 21:57 33.94709 -118.41984 131 ft 0 kts 86°
2026-04-24 21:57 33.94711 -118.41964 131 ft 5 kts 86°
2026-04-24 21:58 33.94716 -118.41900 127 ft 10 kts 83°
2026-04-24 21:58 33.94727 -118.41791 127 ft 16 kts 83°
2026-04-24 21:58 33.94743 -118.41635 131 ft 21 kts 83°
2026-04-24 21:58 33.94764 -118.41447 127 ft 19 kts 75°
2026-04-24 21:59 33.94777 -118.41317 131 ft 14 kts 126°
2026-04-24 21:59 33.94707 -118.41291 128 ft 12 kts 170°
2026-04-24 21:59 33.94620 -118.41276 128 ft 13 kts 174°
2026-04-24 21:59 33.94522 -118.41263 128 ft 15 kts 173°
2026-04-24 22:00 33.94426 -118.41249 128 ft 12 kts 172°
2026-04-24 22:00 33.94341 -118.41236 128 ft 11 kts 172°